Latest Coastal Weather Observations for Cape Flattery

IDQ60701

Issued at 2:42 am EST Sunday 31 July 2016 (issued every 10 minutes, with the page automatically refreshed every 10 minutes)

About coastal observations | Map of coastal stations | Coastal observations for QLD | Marine services | Other Formats
Station Details ID: 031213 Name: CAPE FLATTERY Lat: -14.97 Lon: 145.31 Height: 18.5 m
Data from the previous 72 hours. | See also: Recent months at Cape Flattery
Date/Time
EST
Temp
°C
Wind Pressure Rain since
9am
mm
Weather Cloud Vis
km
Sea
Height
m
Swell
Dir  Spd
kts
Gust
kts
hPa Trend Height
m
Period
s
Dir
31/02:30am 24.2 SE 18 24 1013.0 - 0.2 - - - - - - -
31/02:00am 24.0 SE 18 24 1013.1 - 0.2 - - - - - - -
31/01:30am 24.1 SE 18 24 1013.4 - 0.2 - - - - - - -
31/01:00am 24.0 SE 17 24 1013.8 - 0.2 - - - - - - -
31/12:30am 24.1 SE 17 24 1014.0 - 0.2 - - - - - - -
31/12:00am 24.3 SE 19 25 1014.2 - 0.2 - - - - - - -
 
Date/Time
EST
Temp
°C
Wind Pressure Rain since
9am
mm
Weather Cloud Vis
km
Sea
Height
m
Swell
Dir  Spd
kts
Gust
kts
hPa Trend Height
m
Period
s
Dir
30/11:30pm 24.2 SE 18 24 1014.3 - 0.2 - - - - - - -
30/11:00pm 24.4 SE 18 25 1014.6 - 0.2 - - - - - - -
30/10:30pm 24.3 SE 17 25 1014.8 - 0.2 - - - - - - -
30/10:00pm 24.5 SE 17 25 1014.8 - 0.2 - - - - - - -
30/09:32pm 24.3 SE 17 27 1014.8 - 0.2 - - - - - - -
30/09:30pm 24.2 SE 17 23 1014.8 - 0.2 - - - - - - -
30/09:11pm 24.3 SE 18 28 1014.9 - 0.2 - - - - - - -
30/09:00pm 24.4 SE 20 26 1014.8 - 0.2 - - - - - - -
30/08:30pm 24.4 SE 18 23 1014.6 - 0.2 - - - - - - -
30/08:00pm 24.6 SE 19 24 1014.1 - 0.2 - - - - - - -
30/07:30pm 24.4 SE 19 26 1013.8 - 0.2 - - - - - - -
30/07:00pm 24.1 SSE 18 24 1013.5 - 0.2 - - - - - - -
30/06:30pm 24.1 SSE 19 26 1013.4 - 0.2 - - - - - - -
30/06:00pm 24.1 SSE 19 25 1013.1 - 0.2 - - - - - - -
30/05:30pm 24.2 SSE 20 26 1013.0 - 0.2 - - - - - - -
30/05:00pm 24.1 SSE 18 25 1012.8 - 0.2 - - - - - - -
30/04:30pm 24.5 SSE 18 26 1012.6 - 0.2 - - - - - - -
30/04:00pm 25.2 SSE 20 27 1012.5 - 0.2 - - - - - - -
30/03:30pm 24.9 SSE 21 26 1012.6 - 0.2 - - - - - - -
30/03:00pm 24.7 SSE 18 25 1012.6 - 0.2 - - - - - - -
30/02:30pm 24.9 SSE 20 26 1012.7 - 0.2 - - - - - - -
30/02:00pm 25.7 SE 22 29 1012.7 - 0.2 - - - - - - -
30/01:30pm 24.8 SE 19 29 1013.2 - 0.2 - - - - - - -
30/01:26pm 25.0 SE 19 29 1013.2 - 0.2 - - - - - - -
30/01:00pm 25.5 SE 20 29 1013.6 - 0.2 - - - - - - -
30/12:30pm 26.4 SE 21 29 1013.9 - 0.2 - - - - - - -
30/12:00pm 25.9 SE 21 29 1014.1 - 0.2 Recent precip. - - - - - -
30/11:30am 26.4 SE 21 29 1014.4 - 0.2 - - - - - - -
30/11:00am 25.5 SE 20 27 1014.8 - 0.0 - - - - - - -
30/10:30am 25.7 SE 21 27 1015.0 - 0.0 - - - - - - -
30/10:11am 25.6 SE 19 29 1015.1 - 0.0 - - - - - - -
30/10:00am 25.9 SE 19 26 1015.1 - 0.0 - - - - - - -
30/09:40am 25.3 SE 19 29 1015.1 - 0.0 - - - - - - -
30/09:30am 25.1 SE 18 27 1015.1 - 0.0 - - - - - - -
30/09:00am 23.9 SE 19 27 1015.0 - 1.0 - - - - - - -
30/08:31am 24.5 SE 17 27 1014.6 - 1.0 - - - - - - -
30/08:30am 24.6 SE 18 27 1014.6 - 1.0 - - - - - - -
30/08:26am 24.4 SE 19 29 1014.6 - 1.0 - - - - - - -
30/08:00am 24.0 SE 17 24 1014.3 - 1.0 - - - - - - -
30/07:35am 23.1 SE 17 27 1014.0 - 1.0 - - - - - - -
30/07:30am 23.6 SSE 17 22 1014.0 - 1.0 - - - - - - -
30/07:00am 23.3 SSE 19 25 1013.6 - 0.8 - - - - - - -
30/06:30am 23.2 SSE 18 23 1013.4 - 0.8 - - - - - - -
30/06:00am 23.2 SSE 18 23 1013.2 - 0.8 Recent precip. - - - - - -
30/05:40am 22.8 SSE 18 29 1013.1 - 0.8 - - - - - - -
30/05:30am 23.1 SSE 19 25 1013.0 - 0.8 - - - - - - -
30/05:00am 23.1 SSE 17 23 1012.7 - 0.2 - - - - - - -
30/04:30am 23.3 SSE 19 25 1012.7 - 0.0 - - - - - - -
30/04:00am 23.1 SSE 17 23 1012.7 - 0.0 - - - - - - -
30/03:30am 22.7 SSE 19 24 1013.0 - 0.0 - - - - - - -
30/03:00am 22.5 SSE 18 24 1013.1 - 0.0 - - - - - - -
30/02:30am 23.2 SSE 19 25 1013.2 - 0.0 - - - - - - -
30/02:00am 22.9 SSE 20 29 1013.5 - 0.0 - - - - - - -
30/01:30am 22.5 SSE 18 25 1013.9 - 0.0 - - - - - - -
30/01:00am 23.2 SSE 19 27 1014.3 - 0.0 - - - - - - -
30/12:30am 23.1 SSE 20 27 1014.5 - 0.0 - - - - - - -
30/12:00am 23.2 SSE 18 24 1014.9 - 0.0 - - - - - - -
 
Date/Time
EST
Temp
°C
Wind Pressure Rain since
9am
mm
Weather Cloud Vis
km
Sea
Height
m
Swell
Dir  Spd
kts
Gust
kts
hPa Trend Height
m
Period
s
Dir
29/11:30pm 23.3 SSE 19 27 1015.3 - 0.0 - - - - - - -
29/11:00pm 23.3 SSE 18 26 1015.4 - 0.0 - - - - - - -
29/10:30pm 23.4 SSE 20 27 1015.6 - 0.0 - - - - - - -
29/10:00pm 23.5 SSE 21 28 1015.7 - 0.0 - - - - - - -
29/09:30pm 23.4 SSE 21 29 1015.6 - 0.0 - - - - - - -
29/09:00pm 23.3 SSE 20 28 1015.5 - 0.0 - - - - - - -
29/08:47pm 23.3 SSE 21 33 1015.5 - 0.0 - - - - - - -
29/08:30pm 23.2 SSE 21 29 1015.4 - 0.0 - - - - - - -
29/08:00pm 23.2 SSE 22 29 1015.2 - 0.0 - - - - - - -
29/07:30pm 23.0 SSE 23 29 1014.9 - 0.0 - - - - - - -
29/07:00pm 23.0 SSE 23 32 1014.6 - 0.0 - - - - - - -
29/06:37pm 22.8 SSE 21 31 1014.3 - 0.0 - - - - - - -
29/06:30pm 22.9 SSE 24 31 1014.2 - 0.0 - - - - - - -
29/06:00pm 22.8 SSE 23 33 1013.9 - 0.0 - - - - - - -
29/05:30pm 22.9 SSE 23 33 1013.7 - 0.0 - - - - - - -
29/05:28pm 22.7 SSE 23 33 1013.7 - 0.0 - - - - - - -
29/05:00pm 22.8 SSE 23 31 1013.5 - 0.0 - - - - - - -
29/04:41pm 22.9 SSE 22 32 1013.6 - 0.0 - - - - - - -
29/04:30pm 22.8 SSE 24 30 1013.6 - 0.0 - - - - - - -
29/04:00pm 22.7 SSE 24 34 1013.5 - 0.0 - - - - - - -
29/03:56pm 22.8 SSE 24 34 1013.5 - 0.0 - - - - - - -
29/03:30pm 22.7 SSE 23 30 1013.5 - 0.0 - - - - - - -
29/03:09pm 22.8 SSE 23 33 1013.5 - 0.0 - - - - - - -
29/03:00pm 22.8 SSE 24 32 1013.5 - 0.0 - - - - - - -
29/02:30pm 23.0 SSE 25 32 1013.6 - 0.0 - - - - - - -
29/02:00pm 23.2 SSE 23 31 1013.8 - 0.0 - - - - - - -
29/01:30pm 23.4 SSE 23 32 1014.2 - 0.0 - - - - - - -
29/01:07pm 23.6 SSE 23 33 1014.5 - 0.0 - - - - - - -
29/01:00pm 23.5 SSE 23 31 1014.6 - 0.0 - - - - - - -
29/12:52pm 23.6 SSE 23 33 1014.7 - 0.0 - - - - - - -
29/12:30pm 23.7 SSE 22 31 1015.1 - 0.0 - - - - - - -
29/12:04pm 24.1 SSE 24 34 1015.3 - 0.0 - - - - - - -
29/12:00pm 24.2 SSE 22 31 1015.3 - 0.0 - - - - - - -
29/11:46am 24.1 SSE 23 33 1015.5 - 0.0 - - - - - - -
29/11:30am 24.1 SSE 24 32 1015.8 - 0.0 - - - - - - -
29/11:00am 24.4 SSE 23 31 1016.1 - 0.0 - - - - - - -
29/10:30am 24.2 SSE 23 32 1016.3 - 0.0 - - - - - - -
29/10:00am 24.3 SE 23 33 1016.3 - 0.0 - - - - - - -
29/09:36am 23.9 SSE 23 34 1016.1 - 0.0 - - - - - - -
29/09:30am 24.0 SE 23 31 1016.1 - 0.0 - - - - - - -
29/09:16am 23.6 SE 22 32 1016.1 - 0.0 - - - - - - -
29/09:00am 23.9 SSE 23 31 1016.0 - 0.0 - - - - - - -
29/08:30am 23.9 SE 23 30 1015.9 - 0.0 - - - - - - -
29/08:00am 23.9 SSE 23 33 1015.6 - 0.0 - - - - - - -
29/07:41am 23.8 SSE 22 32 1015.6 - 0.0 - - - - - - -
29/07:30am 23.9 SSE 22 29 1015.5 - 0.0 - - - - - - -
29/07:00am 23.8 SSE 22 29 1015.2 - 0.0 - - - - - - -
29/06:30am 23.9 SSE 23 33 1014.8 - 0.0 - - - - - - -
29/06:28am 23.9 SSE 22 33 1014.7 - 0.0 - - - - - - -
29/06:00am 24.0 SSE 23 30 1014.5 - 0.0 - - - - - - -
29/05:30am 24.0 SSE 23 32 1014.3 - 0.0 - - - - - - -
29/05:00am 23.9 SSE 22 32 1014.4 - 0.0 - - - - - - -
29/04:56am 23.9 SSE 22 32 1014.3 - 0.0 - - - - - - -
29/04:30am 23.9 SSE 23 31 1014.2 - 0.0 - - - - - - -
29/04:18am 23.9 SSE 21 31 1014.1 - 0.0 - - - - - - -
29/04:00am 24.0 SSE 23 30 1014.1 - 0.0 - - - - - - -
29/03:30am 24.0 SSE 24 30 1014.2 - 0.0 - - - - - - -
29/03:03am 24.1 SE 21 31 1014.2 - 0.0 - - - - - - -
29/03:00am 24.2 SE 23 31 1014.2 - 0.0 - - - - - - -
29/02:47am 24.2 SE 21 32 1014.3 - 0.0 - - - - - - -
29/02:30am 24.3 SE 21 29 1014.4 - 0.0 - - - - - - -
29/02:09am 24.3 SE 20 30 1014.7 - 0.0 - - - - - - -
29/02:00am 24.4 SE 22 30 1014.8 - 0.0 - - - - - - -
29/01:33am 24.3 SE 22 32 1015.0 - 0.0 - - - - - - -
29/01:30am 24.5 SE 23 32 1015.0 - 0.0 - - - - - - -
29/01:25am 24.4 SE 22 32 1015.0 - 0.0 - - - - - - -
29/01:00am 23.7 SSE 18 24 1015.4 - 0.0 - - - - - - -
29/12:30am 24.0 SSE 21 27 1015.6 - 0.0 - - - - - - -
29/12:00am 24.3 SSE 21 29 1015.6 - 0.0 - - - - - - -
 
Date/Time
EST
Temp
°C
Wind Pressure Rain since
9am
mm
Weather Cloud Vis
km
Sea
Height
m
Swell
Dir  Spd
kts
Gust
kts
hPa Trend Height
m
Period
s
Dir
28/11:38pm 24.4 SSE 22 32 1015.8 - 0.0 - - - - - - -
28/11:30pm 24.4 SSE 23 29 1015.8 - 0.0 - - - - - - -
28/11:00pm 24.3 SE 22 30 1016.4 - 0.0 - - - - - - -
28/10:30pm 24.2 SSE 23 30 1016.7 - 0.0 - - - - - - -
28/10:00pm 24.1 SSE 24 29 1016.9 - 0.0 - - - - - - -
28/09:30pm 24.0 SE 25 32 1017.0 - 0.0 - - - - - - -
28/09:02pm 23.8 SE 23 33 1016.9 - 0.0 - - - - - - -
28/09:00pm 23.8 SE 23 31 1016.9 - 0.0 - - - - - - -
28/08:34pm 23.9 SSE 25 35 1016.7 - 0.0 - - - - - - -
28/08:30pm 23.8 SSE 23 31 1016.7 - 0.0 - - - - - - -
28/08:11pm 23.9 SSE 24 34 1016.4 - 0.0 - - - - - - -
28/08:00pm 23.9 SSE 25 32 1016.3 - 0.0 - - - - - - -
28/07:30pm 24.1 SE 25 34 1016.0 - 0.0 - - - - - - -
28/07:00pm 24.2 SE 24 33 1015.6 - 0.0 - - - - - - -
28/06:32pm 24.3 SE 25 37 1015.4 - 0.0 - - - - - - -
28/06:30pm 24.2 SE 25 33 1015.3 - 0.0 - - - - - - -
28/06:03pm 24.0 SSE 24 34 1014.9 - 0.0 - - - - - - -
28/06:00pm 24.0 SSE 25 34 1014.9 - 0.0 - - - - - - -
28/05:30pm 24.1 SSE 25 37 1014.7 - 0.0 - - - - - - -
28/05:11pm 24.4 SSE 25 35 1014.4 - 0.0 - - - - - - -
28/05:00pm 24.4 SSE 26 35 1014.4 - 0.0 - - - - - - -
28/04:30pm 24.8 SSE 24 37 1014.3 - 0.0 - - - - - - -
28/04:00pm 24.5 SSE 26 32 1014.1 - 0.0 - - - - - - -
28/03:37pm 24.9 SSE 24 34 1013.9 - 0.0 - - - - - - -
28/03:30pm 25.2 SE 25 34 1013.9 - 0.0 - - - - - - -
28/03:00pm 26.2 SE 25 34 1014.1 - 0.0 - - - - - - -
28/02:36pm 26.6 SE 24 34 1014.3 - 0.0 - - - - - - -
28/02:30pm 26.7 SE 25 33 1014.3 - 0.0 - - - - - - -
28/02:00pm 26.5 SE 26 35 1014.4 - 0.0 - - - - - - -
28/01:47pm 27.1 SE 23 33 1014.6 - 0.0 - - - - - - -
28/01:30pm 26.8 SE 25 33 1014.9 - 0.0 - - - - - - -
28/01:00pm 27.0 SE 25 33 1015.2 - 0.0 - - - - - - -
28/12:32pm 26.4 SE 24 35 1015.5 - 0.0 - - - - - - -
28/12:30pm 26.4 SE 24 31 1015.5 - 0.0 - - - - - - -
28/12:08pm 26.8 SSE 24 34 1015.7 - 0.0 - - - - - - -
28/12:00pm 26.6 SSE 25 34 1015.8 - 0.0 - - - - - - -
28/11:32am 26.7 SE 25 35 1016.0 - 0.0 - - - - - - -
28/11:30am 26.7 SE 26 35 1016.0 - 0.0 - - - - - - -
28/11:00am 26.7 SE 25 35 1016.4 - 0.0 - - - - - - -
28/10:36am 26.3 SE 24 35 1016.5 - 0.0 - - - - - - -
28/10:30am 26.4 SE 23 31 1016.5 - 0.0 - - - - - - -
28/10:01am 26.1 SE 25 35 1016.6 - 0.0 - - - - - - -
28/10:00am 26.2 SE 24 33 1016.6 - 0.0 - - - - - - -
28/09:40am 26.1 SE 25 35 1016.6 - 0.0 - - - - - - -
28/09:30am 25.9 SE 24 32 1016.6 - 0.0 - - - - - - -
28/09:15am 25.4 SE 23 33 1016.7 - 0.0 - - - - - - -
28/09:00am 25.3 SE 24 31 1016.7 - 3.0 - - - - - - -
28/08:31am 24.8 SE 22 32 1016.6 - 3.0 - - - - - - -
28/08:30am 24.9 SE 23 32 1016.6 - 3.0 - - - - - - -
28/08:19am 25.0 SE 22 33 1016.5 - 3.0 - - - - - - -
28/08:00am 25.0 SE 24 31 1016.3 - 3.0 - - - - - - -
28/07:30am 24.7 SSE 21 30 1015.9 - 3.0 - - - - - - -
28/07:08am 24.8 SSE 21 32 1015.7 - 3.0 - - - - - - -
28/07:00am 24.8 SSE 22 29 1015.6 - 3.0 - - - - - - -
28/06:30am 24.8 SSE 20 30 1015.3 - 3.0 - - - - - - -
28/06:00am 24.7 SSE 21 28 1015.1 - 3.0 - - - - - - -
28/05:30am 24.5 SE 19 25 1014.6 - 3.0 - - - - - - -
28/05:03am 24.8 SE 22 32 1014.6 - 3.0 - - - - - - -
28/05:00am 24.8 SE 21 28 1014.6 - 3.0 - - - - - - -
28/04:30am 24.4 SE 19 26 1014.7 - 3.0 - - - - - - -
28/04:00am 24.1 SE 21 30 1014.7 - 3.0 - - - - - - -
28/03:48am 24.4 SE 21 31 1014.7 - 3.0 - - - - - - -
28/03:30am 24.2 SE 21 29 1014.7 - 3.0 - - - - - - -
28/03:00am 24.5 SSE 19 26 1014.7 - 3.0 - - - - - - -

Other Formats:

Comma delimited format used in spreadsheet applications
http://www.bom.gov.au/fwo/IDQ60701/IDQ60701.94188.axf

JavaScript Object Notation format (JSON) in row-major order
http://www.bom.gov.au/fwo/IDQ60701/IDQ60701.94188.json